This is the latest recevied weather packets stored in our database for station/object WD9U. If no packets are shown the sender has not sent any weather packets the latest 10 day(s).
| Time | Temp. | Humidity | Pressure | Rain* | Wind** | Luminosity | Snow |
|---|---|---|---|---|---|---|---|
| 1777847468 | 19.44° C | 22% | 1003.8 hPa | 0 mm | - | 435 W/m² | - |
| 1777847108 | 19.44° C | 21% | 1003.8 hPa | 0 mm | - | 444 W/m² | - |
| 1777846748 | 18.89° C | 22% | 1003.8 hPa | 0 mm | - | 444 W/m² | - |
| 1777846388 | 18.89° C | 21% | 1003.7 hPa | 0 mm | - | 446 W/m² | - |
| 1777846028 | 18.89° C | 21% | 1003.8 hPa | 0 mm | - | 468 W/m² | - |
| 1777845910 | 18.89° C | 21% | 1003.7 hPa | 0 mm | - | 484 W/m² | - |
| 1777845668 | 18.89° C | 21% | 1003.8 hPa | 0 mm | - | 516 W/m² | - |
| 1777845307 | 18.89° C | 23% | 1003.8 hPa | 0 mm | - | 500 W/m² | - |
| 1777844947 | 18.89° C | 22% | 1003.8 hPa | 0 mm | - | 558 W/m² | - |
| 1777844719 | 18.89° C | 21% | 1003.8 hPa | 0 mm | - | 575 W/m² | - |
| 1777844587 | 18.89° C | 21% | 1003.9 hPa | 0 mm | - | 592 W/m² | - |
| 1777844227 | 18.33° C | 19% | 1004 hPa | 0 mm | - | 530 W/m² | - |
| 1777843867 | 18.33° C | 21% | 1004 hPa | 0 mm | - | 524 W/m² | - |
| 1777843507 | 18.33° C | 21% | 1004.1 hPa | 0 mm | - | 574 W/m² | - |
| 1777843147 | 18.33° C | 21% | 1004 hPa | 0 mm | - | 454 W/m² | - |
| 1777842787 | 18.33° C | 19% | 1004 hPa | 0 mm | - | 532 W/m² | - |
| 1777842427 | 18.33° C | 19% | 1004.1 hPa | 0 mm | - | 634 W/m² | - |
| 1777842319 | 18.33° C | 21% | 1004 hPa | 0 mm | - | 644 W/m² | - |
| 1777842067 | 18.33° C | 21% | 1004.2 hPa | 0 mm | - | 518 W/m² | - |
| 1777841716 | 18.33° C | 20% | 1004.1 hPa | 0 mm | - | 432 W/m² | - |
| 1777841356 | 18.33° C | 21% | 1004.1 hPa | 0 mm | - | 542 W/m² | - |
| 1777841118 | 18.33° C | 20% | 1004.1 hPa | 0 mm | - | 387 W/m² | - |
| 1777840996 | 18.33° C | 20% | 1004.3 hPa | 0 mm | - | 538 W/m² | - |
| 1777840636 | 18.33° C | 21% | 1004.1 hPa | 0 mm | - | 400 W/m² | - |
| 1777840276 | 18.33° C | 19% | 1004.2 hPa | 0 mm | - | 544 W/m² | - |
* Rain latest hour (hover to see other rain measurements)
** Current wind speed in m/s (hover to see current wind gust speed)